Home   Weather   Luanda   Past weeks

Flag for Angola Past Weather in Luanda, Angola — Yesterday and Last 2 Weeks

Now
68 °F

Passing clouds.


Feels Like: 68 °F
Forecast: 65 / 71 °F
Wind: 2 mph from North

Location: Luanda Airport

Current Time: Jul 22, 2017 at 2:05:11 am

Latest Report: Jul 22, 2017 at 1:00 am


Visibility: N/A

Pressure: 29.98 "Hg

Humidity: 94%

Dew Point: 66 °F

Location of LuandaLocation

Past Weather in Luanda — Graph

°F

Luanda Temperature Yesterday

Maximum temperature yesterday: 77 °F (at 11:00 am)
Minimum temperature yesterday: 66 °F (at 7:00 am)
Average temperature yesterday: 72 °F

High & Low Weather Summary for the Past Weeks

 TemperatureHumidityPressure
High77 °F (Jul 7, 1:00 pm)100% (Jul 12, 6:00 am)30.36 "Hg (Jul 12, 6:00 am)
Low63 °F (Jul 9, 5:00 am)53% (Jul 20, 3:00 am)29.86 "Hg (Jul 21, 3:00 pm)
Average71 °F80%30.00 "Hg
* Reported Jul 7 1:00 am — Jul 22 1:00 am, Luanda. Weather by CustomWeather, © 2017

Note: Actual official high and low records may vary slightly from our data, if they occured in-between our weather recording intervals... More about our weather records

Advertising

Luanda Weather History for the Previous 24 Hours

Scroll right to see more
 ConditionsComfort  
Time TempWeatherWind HumidityBarometerVisibility
1:00 am
Sat, Jul 22
68 °FPassing clouds.2 mph94%29.98 "HgN/A
12:00 am68 °FPassing clouds.6 mph94%29.98 "HgN/A
11:00 pm
Fri, Jul 21
68 °FPassing clouds.5 mph94%29.98 "HgN/A
6:00 pm72 °FClear.9 mph78%29.89 "Hg6 mi
5:00 pm73 °FSunny.9 mph74%29.89 "Hg10 mi
4:00 pm75 °FSunny.9 mph69%29.86 "Hg10 mi
3:00 pm75 °FSunny.9 mph65%29.86 "Hg10 mi
2:00 pm77 °FScattered clouds.9 mph61%29.92 "Hg6 mi
1:00 pm77 °FScattered clouds.9 mph61%29.92 "Hg6 mi
12:00 pm77 °FPartly sunny.8 mph61%29.95 "Hg4 mi
11:00 am77 °FPartly sunny.5 mph65%29.98 "Hg4 mi
10:00 am75 °FFog.3 mph69%30.01 "Hg3 mi
9:00 am73 °FFog.6 mph74%29.98 "Hg1 mi
8:00 am70 °FFog.3 mph83%29.98 "Hg1 mi
7:00 am66 °FFog.3 mph94%29.95 "Hg1 mi
6:00 am68 °FFog.3 mph88%29.95 "Hg2 mi
5:00 am68 °FFog.3 mph88%29.95 "Hg2 mi
4:00 am68 °FFog.2 mph88%29.95 "Hg3 mi
3:00 am68 °FFog.3 mph88%29.95 "Hg3 mi
2:00 am70 °FFog.5 mph88%29.95 "Hg3 mi
Weather by CustomWeather, © 2017

See weather overviewHow to use our weather pages